Location: Newark
(49.5647°N, 8.2922°E)
Time: 08:32:25
(UTC+00:00)

Transit 2A - Pass Details

Date: 21 February 2020
Orbit: 597 x 962 km, 66.7° (Epoch: 08 April)

Event Time Altitude Azimuth Distance (km) Brightness Sun altitude
Rises 21:28:28 0° 321° (NW) 3,064 9.9 -42.3°
Reaches altitude 10° 21:30:42 10° 319° (NW) 2,194 9.0 -42.6°
Enters shadow 21:30:56 11° 318° (NW) 2,109 8.9 -42.6°
Maximum altitude 21:35:40 64° 238° (WSW) 849 - -43.2°
Drops below altitude 10° 21:41:09 10° 159° (SSE) 2,424 - -43.8°
Sets 21:43:44 0° 156° (SSE) 3,412 - -44.1°
